COSMOS 2074

Satellite information

Favourite Embed

Satellite Type and Status

PAYLOADIN ORBIT

Key statistics

Satellite COSMOS 2074 at a glance.

Uptime

12922

Days in orbit

Revolutions

≈ 13.7

Per day

Orbit

LEO

Low Earth Orbit

Inclination

82.9

Latest

Satellite identification and parameters

Extended collection of information and parameters for COSMOS 2074.

Object identification

Identified? True

Debris? False

Object name: COSMOS 2074

International designator: 1990-036A

Object number (NORAD): 20577

Object ID (CCSDS): 20577

Country: COMMONWEALTH OF INDEPENDENT STATES (CIS)

Current information (Y/N): Y

RCS size: LARGE

Orbital parameters

Period: 104.739 minutes

Inclination: 82.9454 deg

SMA: 7360.35 km

Apoapsis: 1001.053 km

Periapsis: 963.377 km

RAAN: 317.9872 deg

Eccentricy: 0.0025594

Argument of periapsis: 286.0259 deg

Mean anomaly: 90.6672 deg

Mean motion: 13.74849201 rev/day

Mean motion (dot): 0.0000007 rev/day2

B* drag term: 0.000057872175 1/REarth

Two-line elements (TLE)

Creation date: Sept. 4, 2025, 10:13 a.m.

Reference frame: TEME

Reference center: EARTH

Epoch: Sept. 4, 2025, 4:57 a.m. UTC

TLE line 0: 0 COSMOS 2074

TLE line 1: 1 20577U 90036A 25247.20641227 .00000070 00000-0 57872-4 0 9993

TLE line 2: 2 20577 82.9454 317.9872 0025594 286.0259 90.6672 13.74849201774433

Live tracking on map

Real-time ground track for satellite COSMOS 2074.

In-orbit conjunctions

A list of the most updated potential collisions computed for object COSMOS 2074.

Target Orbit TCA Probability of collision Miss distance Type
FENGYUN 1C DEB SSO 2024-12-03 14:15:54 0.000383291 345.0 (m) DEBRIS
FENGYUN 1C DEB SSO 2024-07-25 06:26:26 0.0001824981 256.0 (m) DEBRIS

Associated space launch

Navigation satellite providing location information for the Tsiklon-B navigation system

COSMOS 2074 was lifted into orbit during the mission ‘Kosmos-3M | Parus 69’, on board a Kosmos-3M space rocket.

The launch took place on April 20, 1990, 6:41 p.m. from 133/3 (133L).

For more information about the launch, click the button.

Launch to space Kosmos-3M | Parus 69
Kosmos-3M | Parus 69

Agency: N/A

Status: Launch Successful

Launch date: April 20, 1990, 6:41 p.m. UTC

Rocket: Kosmos-3M

Launch pad: 133/3 (133L)

Location: Plesetsk Cosmodrome, Russian Federation

...

Latest news about this satellite

There are no fresh news available about this satellite. Check back as we update our databases every day.


Newsletter sign-up

Weekly statistics, charts and insights to help you stay on top of the space industry.